This is the latest recevied weather packets stored in our database for station/object IK2ILW-6. If no packets are shown the sender has not sent any weather packets the latest 10 day(s).
| Time | Temp. | Humidity | Pressure | Rain* | Wind** | Luminosity | Snow |
|---|---|---|---|---|---|---|---|
| 1778168494 | 5° C | 95% | 1014.2 hPa | 0 mm | - | 58 W/m² | - |
| 1778168198 | 5° C | 95% | 1014.2 hPa | 0 mm | - | 40 W/m² | - |
| 1778167901 | 4.44° C | 94% | 1014.2 hPa | 0 mm | - | 56 W/m² | - |
| 1778167584 | 5° C | 93% | 1014.2 hPa | 0 mm | - | 74 W/m² | - |
| 1778167289 | 5° C | 92% | 1014.2 hPa | 0 mm | - | 37 W/m² | - |
| 1778166997 | 5° C | 92% | 1014.2 hPa | 0 mm | - | 39 W/m² | - |
| 1778166701 | 5.56° C | 92% | 1014.1 hPa | 0 mm | - | 63 W/m² | - |
| 1778166384 | 5.56° C | 93% | 1014.1 hPa | 0 mm | - | 70 W/m² | - |
| 1778166089 | 5.56° C | 94% | 1014.1 hPa | 0 mm | - | 155 W/m² | - |
| 1778165794 | 5.56° C | 94% | 1014.1 hPa | 1.02 mm | - | 211 W/m² | - |
| 1778165498 | 5.56° C | 93% | 1014.1 hPa | 1.02 mm | - | 134 W/m² | - |
| 1778165183 | 5.56° C | 93% | 1014 hPa | 1.02 mm | - | 134 W/m² | - |
| 1778164888 | 5.56° C | 91% | 1014 hPa | 1.02 mm | - | 172 W/m² | - |
| 1778164592 | 6.11° C | 86% | 1014.1 hPa | 1.02 mm | - | 248 W/m² | - |
| 1778164296 | 6.11° C | 87% | 1014.1 hPa | 2.03 mm | - | 905 W/m² | - |
| 1778163984 | 6.11° C | 90% | 1014 hPa | 2.03 mm | - | 264 W/m² | - |
| 1778163689 | 6.11° C | 93% | 1014 hPa | 2.03 mm | - | 193 W/m² | - |
| 1778163393 | 5.56° C | 96% | 1014 hPa | 2.03 mm | - | 949 W/m² | - |
| 1778163098 | 5° C | 94% | 1014.1 hPa | 2.03 mm | - | 322 W/m² | - |
| 1778162783 | 5° C | 94% | 1014.2 hPa | 3.05 mm | - | 209 W/m² | - |
| 1778162489 | 5° C | 95% | 1014.2 hPa | 2.03 mm | - | 109 W/m² | - |
| 1778162193 | 4.44° C | 93% | 1014.2 hPa | 2.03 mm | - | 169 W/m² | - |
| 1778161897 | 4.44° C | 94% | 1014.2 hPa | 3.05 mm | - | 218 W/m² | - |
| 1778161602 | 4.44° C | 93% | 1014.2 hPa | 3.05 mm | - | 311 W/m² | - |
| 1778161287 | 5° C | 93% | 1014.2 hPa | 3.05 mm | - | 95 W/m² | - |
* Rain latest hour (hover to see other rain measurements)
** Current wind speed in m/s (hover to see current wind gust speed)